This demonstration page uses our WeatherBlox Daily Observations layout. Learn more.

41.55636, -103.73856

Hourly Observations for July 6, 2019

Temp ( °F °C ) Dew Point ( °F °C ) Humidity (%) Winds ( mph kmh ) Pressure ( in mb ) Visibility ( mi km ) Precip ( " mm )
12:53 am 00:53 Clear 64 18 N/A N/A N 8 13 30.12 1020 10 16.09344 0 0
1:53 am 01:53 Clear 63 17 N/A N/A WSW 8 13 30.15 1021 10 16.09344 0 0
2:20 am 02:20 Mostly Cloudy 63 17 N/A N/A WNW 6 9 30.15 1021 10 16.09344 0 0
2:53 am 02:53 Cloudy 63 17 N/A N/A WNW 7 11 30.15 1021 10 16.09344 0 0
3:53 am 03:53 Cloudy 63 17 N/A N/A NW 7 11 30.12 1020 10 16.09344 0 0
4:45 am 04:45 Mostly Clear 61 16 N/A N/A NNW 6 9 30.15 1021 10 16.09344 0 0
4:53 am 04:53 Mostly Clear 61 16 N/A N/A NW 7 11 30.12 1020 10 16.09344 0 0
5:53 am 05:53 Sunny 61 16 N/A N/A NNW 8 13 30.12 1020 10 16.09344 0 0
6:35 am 06:35 Partly Cloudy 61 16 N/A N/A WSW 3 6 30.18 1022 10 16.09344 0 0
6:53 am 06:53 Partly Cloudy 63 17 N/A N/A Calm 30.15 1021 10 16.09344 0 0
7:00 am 07:00 Mostly Cloudy 63 17 N/A N/A Calm 30.15 1021 10 16.09344 0 0
7:53 am 07:53 Cloudy 63 17 N/A N/A Calm 30.21 1023 10 16.09344 0 0
8:32 am 08:32 Cloudy 64 18 N/A N/A VRB 3 6 30.18 1022 10 16.09344 0 0
8:53 am 08:53 Cloudy 64 18 N/A N/A E 7 11 30.21 1023 10 16.09344 0 0
9:53 am 09:53 Cloudy 64 18 N/A N/A SSE 6 9 30.21 1023 10 16.09344 0 0
10:35 am 10:35 Cloudy 64 18 N/A N/A SE 10 17 30.18 1022 10 16.09344 0 0
10:53 am 10:53 Cloudy 64 18 N/A N/A ESE 7 11 30.21 1023 10 16.09344 0 0
11:16 am 11:16 Cloudy 64 18 N/A N/A SE 5 7 30.18 1022 10 16.09344 0 0
11:27 am 11:27 Cloudy 64 18 N/A N/A S 5 7 30.15 1021 8 12.874752 0 0
11:53 am 11:53 Cloudy 66 19 N/A N/A Calm 30.18 1022 10 16.09344 0 0
12:22 pm 12:22 Cloudy 70 21 N/A N/A VRB 6 9 30.09 1019 10 16.09344 0 0
12:53 pm 12:53 Mostly Sunny 72 22 N/A N/A ESE 6 9 30.15 1021 10 16.09344 0 0
1:45 pm 13:45 Mostly Cloudy 73 23 N/A N/A NE 5 7 30 1016 10 16.09344 0 0
1:53 pm 13:53 Mostly Cloudy 73 23 N/A N/A ENE 6 9 30.12 1020 10 16.09344 0 0
2:20 pm 14:20 Mostly Cloudy 75 24 N/A N/A VRB 6 9 30 1016 10 16.09344 0 0
2:53 pm 14:53 Mostly Sunny 77 25 N/A N/A E 7 11 30.09 1019 10 16.09344 0 0
3:53 pm 15:53 Sunny 79 26 N/A N/A E 12 19 30.06 1018 10 16.09344 0 0
4:53 pm 16:53 Sunny 79 26 N/A N/A ESE 12 19 30.06 1018 10 16.09344 0 0
5:53 pm 17:53 Mostly Sunny 81 27 N/A N/A ESE 16 26 30.03 1017 10 16.09344 0 0
6:53 pm 18:53 Sunny 75 24 N/A N/A ESE 15 24 30 1016 10 16.09344 0 0
7:53 pm 19:53 Sunny 73 23 N/A N/A ENE 9 15 30.03 1017 10 16.09344 0 0
8:27 pm 20:27 Mostly Cloudy with Nearby Thunderstorms 72 22 N/A N/A ENE 7 11 29.91 1013 10 16.09344 0 0
8:53 pm 20:53 Mostly Cloudy with Nearby Thunderstorms 72 22 N/A N/A NE 12 19 30.03 1017 10 16.09344 0.001 0.001
9:05 pm 21:05 Cloudy with Light Thunderstorms 70 21 N/A N/A NNE 10 17 29.97 1015 10 16.09344 0 0
9:19 pm 21:19 Cloudy with Heavy Thunderstorms 59 15 N/A N/A W 39 63 30.09 1019 1.5 2.414016 0.02 0.508
9:24 pm 21:24 Cloudy with Heavy Thunderstorms 57 14 N/A N/A W 39 63 30.18 1022 0.75 1.207008 0 0
9:36 pm 21:36 Cloudy with Heavy Thunderstorms 57 14 N/A N/A WNW 20 31 30.21 1023 1.25 2.01168 0 0
9:43 pm 21:43 Cloudy with Heavy Thunderstorms 55 13 N/A N/A NW 16 26 30.18 1022 1 1.609344 0.62 15.748
9:51 pm 21:51 Cloudy with Heavy Thunderstorms 57 14 N/A N/A WNW 12 19 30.18 1022 2 3.218688 0.75 19.05
9:53 pm 21:53 Cloudy with Heavy Thunderstorms 57 14 N/A N/A WNW 9 15 30.18 1022 2.5 4.02336 0.76 19.304
10:01 pm 22:01 Cloudy with Thunderstorms 57 14 N/A N/A NNE 6 9 30.18 1022 4 6.437376 0.03 0.762
10:14 pm 22:14 Cloudy with Nearby Thunderstorms 57 14 N/A N/A NNE 9 15 30.18 1022 5 8.04672 0 0
10:22 pm 22:22 Cloudy with Thunderstorms 57 14 N/A N/A N 10 17 30.12 1020 5 8.04672 0 0
10:41 pm 22:41 Cloudy with Nearby Thunderstorms 59 15 N/A N/A ENE 25 41 30 1016 5 8.04672 0.16 4.064
10:53 pm 22:53 Cloudy with Nearby Thunderstorms 59 15 N/A N/A E 20 31 30.03 1017 10 16.09344 0.17 4.318
11:06 pm 23:06 Mostly Cloudy 61 16 N/A N/A ENE 18 30 30 1016 10 16.09344 0 0
11:53 pm 23:53 Clear 59 15 N/A N/A S 7 11 30.03 1017 10 16.09344 0.001 0.001

Powered by AerisWeather